STARLINK-5732, 55572

Orbit data source: Space-Track

STARLINK-5732, 55572 is a payload satellite owned by SpaceX/Seattle (US) in LEO that was launched on Sun, 12 Feb 2023 UTC via an FALCON 9 launch vehicle from the Air Force Eastern Test Range (AFETR). Payload-class satellites include a variety of spacecraft equipped with specific instruments for various scientific and technological missions. These include communications satellites like Starlink; space stations such as the ISS; scientific satellites like the Hubble; Earth observation satellites from companies like Planet Labs, Umbra, and HawkEye 360; GPS; miniature CubeSats for education and research; and military/defense satellites.

Loading next visibility...
Identifier
55572, 2023-020D
Orbit
LEO
Country
Flag of USUS
Related business
Manufacturer
SpaceX/Seattle
Mission
Operational Commercial Communications
Bus & Motor
STARLINK, Unknown motor
Mass
305 kg wet, ~290 kg dry
Launch date (UTC)
2023-02-12 (4 years ago)
Launch vehicle
FALCON 9
Launch site
Air Force Eastern Test Range (AFETR)
Object type
Payload
Rocket body
Debris
Shape & HBR
Box + 1 Pan, 10.1 m
Radar Cross Section
13.562 m², Large (>1 m²)

Expand to show TLE details & history
Last TLE update: 1 day ago

TLE from 1 day ago
0 STARLINK-5732
1 55572U 23020D   26263.21642628 -.00000650  00000-0 -14092-4 0  9994
2 55572  43.0038 349.9884 0001080 274.4035  85.6693 15.27574473198621
Epoch: 2026-09-20T05:11Z
TLE epoch observation values (Epoch: 2026-09-20T05:11:39.230Z)
Latitude
-0.00004°
Longitude
-87.03889°
Altitude
482.786 km
Speed
7.626 km/s
True Right ascension
23h 19m 57s
True Declination
0° 00' 00"
Sunlit
Object was in full shadow at epoch
Visualization orbit readout
Latitude
Unknown
Longitude
Unknown
Altitude
Unknown
Speed
Unknown
Apparent Right ascension
Unknown
Apparent Declination
Unknown
Sunlit
N/A
Visualization observer readout
Local Sidereal Time
04:03:00
Azimuth
Unknown
Elevation
Unknown
Doppler factor
Unknown
Orbital elements
Apogee altitude
485.751 km
Perigee altitude
484.269 km
Semi-major axis
6,863.147 km
Eccentricity
0.00011
Inclination
43.0038°
RAAN
349.9884°
Arg. of periapsis
274.4035°
True anomaly
85.68164°
Mean anomaly
85.6693°
Eccentric anomaly
85.67547°
Mean motion
3.81732 °/min
Orbital period
94.31 mins
BSTAR
-0.000014092
Loading maneuver chart data...
Computing Atmospheric mass density...
Loading historical data...
Loading historical data...
Loading historical data...
Loading historical data...
Loading historical data...
Loading historical data...
Loading historical data...

Documentation

Showing up to 5 results
|